{"data":{"norad_id":57404,"epoch":"2026-05-25T02:05:22.117920Z","epoch_age_seconds":63402,"freshness":"FRESH","line1":"1 57404U 23102A   26145.08706155  .00001285  00000+0  56231-4 0  9994","line2":"2 57404  43.0028 177.1504 0001928 272.7513  87.3118 15.27578990157926","mean_motion":15.2757899,"eccentricity":0.0001928,"inclination_deg":43.0028,"raan_deg":177.1504,"arg_perigee_deg":272.7513,"mean_anomaly_deg":87.3118,"bstar":5.6231e-5,"rev_number":15792,"period_min":94.266811040652,"perigee_km":481.72928308226,"apogee_km":484.37495760707,"semimajor_km":6861.1891203447,"source":"CELESTRAK","updated_at":"2026-05-25T13:38:18.297483Z"}}